Location: Unspecified
(0.0000°N, 0.0000°E)
Time: 03:19:55
(UTC+00:00)

AO-7 - Pass Details

Date: 17 December 2017
Orbit: 1440 x 1458 km, 101.7° (Epoch: 21 July)

Event Time Altitude Azimuth Distance (km) Brightness Sun altitude
Exits shadow 04:05:23 42° 279° (W) 1,977 ? -25.2°
Drops below altitude 10° 04:12:41 10° 218° (SW) 3,576 ? -23.6°
Sets 04:15:40 0° 211° (SSW) 4,554 ? -22.9°
